Regional Weather Roundup
Issued by NWS

Home | Current Version | Previous Version | Text Only | Print | Product List | Glossary Off
Versions: 1 2 3 4 5 6 7 8 9 10 11 12 13 14 15 16 17 18 19 20 21 22 23 24 25 26 27 28 29 30 31 32 33 34 35 36 37 38 39 40 41 42 43 44 45 46 47 48 49 50

000
ASUS45 KCYS 250210
RWRWY

WYOMING REGIONAL WEATHER ROUNDUP
NATIONAL WEATHER SERVICE CHEYENNE WY
800 PM MDT WED AUG 24 2016

NOTE:  "FAIR" INDICATES FEW OR NO CLOUDS BELOW 12,000 FEET
WITH NO SIGNIFICANT WEATHER AND/OR OBSTRUCTIONS TO VISIBILITY.

WYZ001-250300-
YELLOWSTONE NATIONAL PARK

CITY           SKY/WX    TMP DP  RH WIND       PRES   REMARKS
LK YELLOWSTONE   N/A     43  39  86 CALM      30.40R
W YELLOWSTONE  NOT AVBL

$$
WYZ002>013-054>058-071-098>099-250300-
NORTHERN WYOMING

CITY           SKY/WX    TMP DP  RH WIND       PRES   REMARKS
JACKSON        NOT AVBL
CODY           CLOUDY    50  45  81 W7        30.35R
GREYBULL       FAIR      64  40  41 NW21G33   30.23R
WORLAND        FAIR      62  43  49 N24G35    30.22R
SHERIDAN       CLOUDY    61  41  47 NW12      30.29R
BUFFALO        CLOUDY    54  46  74 NW10      30.32R
GILLETTE       CLOUDY    61  44  53 N16       30.25R
HULETT         CLOUDY    61  43  51 N5        30.27R
NEWCASTLE      MOCLDY    66  37  34 N16       30.21R

$$
WYZ014>020-022>026-101>103-250300-
CENTRAL WYOMING

CITY           SKY/WX    TMP DP  RH WIND       PRES   REMARKS
BIG PINEY      FAIR      62  17  17 NW10      30.21R
PINEDALE       FAIR      63  21  20 N6        30.21R
DUBOIS         FAIR      52  34  50 SE18G26   30.29R
LANDER         CLOUDY    62  37  39 N12G23    30.23R
RIVERTON       FAIR      59  39  47 N25G33    30.23R
CASPER         MOCLDY    63  38  39 NE18      30.22R
DOUGLAS        CLOUDY    63  44  50 SE12      30.22R

$$
WYZ021-027>030-104>119-250300-
SOUTHERN WYOMING

CITY           SKY/WX    TMP DP  RH WIND       PRES   REMARKS
EVANSTON       FAIR      62  14  15 W8        30.26R
FORT BRIDGER   FAIR      64  13  13 W8        30.27R
ROCK SPRINGS   NOT AVBL
DIXON          FAIR      66  33  28 CALM      30.19R
RAWLINS        FAIR      60  38  43 E13       30.22R
SARATOGA       FAIR      55  43  62 SW6       30.22R
LARAMIE        FAIR      53  45  74 SE12      30.28R
CHEYENNE       FAIR      58  48  69 S10       30.25S
TORRINGTON     FAIR      58  49  72 NE26G32   30.18S
PINE BLUFFS    FAIR      63  46  55 S6        30.24S

$$



USA.gov is the U.S. government's official web portal to all federal, state and local government web resources and services.